Location: Martz Observatory
(42.0083°N, 79.0667°W)
Time: 20:40:52
(UTC-05:00)

Cosmos-2242 - Pass Details

Date: 26 May 2018
Orbit: 590 x 619 km, 82.5° (Epoch: 13 December)

Event Time Altitude Azimuth Distance (km) Brightness Sun altitude
Rises 01:42:06 0° 351° (N) 2,849 7.6 -26.5°
Reaches altitude 10° 01:44:19 10° 351° (N) 1,946 6.5 -26.5°
Enters shadow 01:47:52 60° 349° (NNW) 691 3.4 -26.4°
